Tracking 19720 objects as of 26-Jun-2019
HD Live streaming from Space Station
objects crossing your sky now

SL-12 DEB

Track SL-12 DEB now!
10-day predictions


NORAD ID: 27805
Int'l Code: 1992-047L
Perigee: 425.0 km
Apogee: 12,363.2 km
Inclination: 65.2 °
Period: 239.2 minutes
Semi major axis: 12765 km
RCS: 0.048 m2 (small)
Launch date: July 30, 1992
Source: Commonwealth of Independent States (former USSR) (CIS)
Launch site: TYURATAM MISSILE AND SPACE COMPLEX (TTMTR)

Note: This is SATELLITE DEBRIS
aabbcc
Your satellite tracking list
Your tracking list is empty




NASA's NSSDC Master Catalog

Two Line Element Set (TLE):
1 27805U 92047L   19175.58896928 +.00000447 +00000-0 +30536-3 0  9997
2 27805 065.2297 025.4234 4676123 293.9523 024.6059 06.01958699363626
Source of the keplerian elements: AFSPC